| time (UTC) | temp F | wind direction | speed knots | gust knots | rain 1hr in | rain 24hr in | rain mn in | humidity % | barometer mb |
| 20260505075959 | 58 | 225 | 0.0 | 0.9 | 0.00 | 0.00 | 0.00 | 68 | 965.4 |
| 20260505075457 | 59 | 227 | 0.0 | 0.0 | 0.00 | 0.00 | 0.00 | 67 | 965.4 |
| 20260505074954 | 59 | 222 | 0.0 | 0.0 | 0.00 | 0.00 | 0.00 | 66 | 965.4 |
| 20260505074453 | 59 | 224 | 0.0 | 0.9 | 0.00 | 0.00 | 0.00 | 66 | 965.4 |
| 20260505073951 | 59 | 228 | 0.0 | 0.9 | 0.00 | 0.00 | 0.00 | 66 | 965.3 |
| 20260505073449 | 60 | 244 | 0.0 | 0.0 | 0.00 | 0.00 | 0.00 | 65 | 965.3 |
| 20260505072947 | 60 | 223 | 0.0 | 0.9 | 0.00 | 0.00 | 0.00 | 64 | 965.3 |
| 20260505072445 | 60 | 207 | 0.0 | 0.9 | 0.00 | 0.00 | 0.00 | 64 | 965.3 |
| 20260505071943 | 60 | 225 | 0.0 | 0.9 | 0.00 | 0.00 | 0.00 | 64 | 965.3 |
| 20260505071441 | 61 | 232 | 0.0 | 0.9 | 0.00 | 0.00 | 0.00 | 63 | 965.4 |
| 20260505070939 | 61 | 237 | 0.0 | 0.9 | 0.00 | 0.00 | 0.00 | 62 | 965.4 |
| 20260505070437 | 61 | 238 | 0.0 | 0.0 | 0.00 | 0.00 | 0.00 | 63 | 965.4 |
| 20260505065935 | 61 | 230 | 0.0 | 0.9 | 0.00 | 0.00 | 0.00 | 62 | 965.4 |
| 20260505065433 | 61 | 229 | 0.0 | 0.9 | 0.00 | 0.00 | 0.00 | 62 | 965.4 |
| 20260505064931 | 62 | 228 | 0.0 | 0.9 | 0.00 | 0.00 | 0.00 | 62 | 965.4 |
| 20260505064429 | 62 | 226 | 0.9 | 0.9 | 0.00 | 0.00 | 0.00 | 62 | 965.3 |
| 20260505063927 | 62 | 227 | 0.9 | 0.9 | 0.00 | 0.00 | 0.00 | 61 | 965.3 |
| 20260505063425 | 62 | 233 | 0.9 | 1.7 | 0.00 | 0.00 | 0.00 | 61 | 965.3 |
| 20260505062923 | 62 | 239 | 0.9 | 0.9 | 0.00 | 0.00 | 0.00 | 60 | 965.3 |
| 20260505062421 | 62 | 231 | 0.9 | 1.7 | 0.00 | 0.00 | 0.00 | 61 | 965.3 |
| 20260505061920 | 63 | 244 | 0.9 | 0.9 | 0.00 | 0.00 | 0.00 | 60 | 965.2 |
| 20260505061417 | 62 | 228 | 1.7 | 1.7 | 0.00 | 0.00 | 0.00 | 60 | 965.1 |
| 20260505060915 | 62 | 232 | 1.7 | 2.6 | 0.00 | 0.00 | 0.00 | 61 | 965.2 |
| 20260505060414 | 62 | 231 | 1.7 | 2.6 | 0.00 | 0.00 | 0.00 | 62 | 965.1 |
| 20260505055911 | 62 | 234 | 1.7 | 1.7 | 0.00 | 0.00 | 0.00 | 62 | 965.1 |
| 20260505055407 | 63 | 224 | 0.9 | 1.7 | 0.00 | 0.00 | 0.00 | 61 | 965.1 |
| 20260505054905 | 63 | 225 | 0.9 | 1.7 | 0.00 | 0.00 | 0.00 | 60 | 965.1 |
| 20260505054403 | 62 | 249 | 0.9 | 1.7 | 0.00 | 0.00 | 0.00 | 61 | 965.1 |
| 20260505053901 | 62 | 220 | 0.9 | 1.7 | 0.00 | 0.00 | 0.00 | 62 | 965.0 |
| 20260505053359 | 61 | 242 | 0.0 | 0.9 | 0.00 | 0.00 | 0.00 | 63 | 965.0 |
| 20260505052857 | 62 | 245 | 0.0 | 0.9 | 0.00 | 0.00 | 0.00 | 63 | 964.9 |
| 20260505052355 | 62 | 219 | 0.0 | 0.9 | 0.00 | 0.00 | 0.00 | 63 | 964.8 |
| 20260505051853 | 62 | 212 | 0.9 | 0.9 | 0.00 | 0.00 | 0.00 | 62 | 964.8 |
| 20260505051351 | 62 | 209 | 0.9 | 0.9 | 0.00 | 0.00 | 0.00 | 62 | 964.8 |
| 20260505050849 | 63 | 222 | 0.9 | 1.7 | 0.00 | 0.00 | 0.00 | 61 | 964.9 |
| 20260505050348 | 63 | 225 | 0.9 | 0.9 | 0.00 | 0.00 | 0.00 | 61 | 965.0 |
| 20260505041327 | 63 | 240 | 0.0 | 0.0 | 0.00 | 0.00 | 0.00 | 61 | 964.9 |
| 20260505040825 | 64 | 234 | 0.0 | 0.9 | 0.00 | 0.00 | 0.00 | 60 | 964.9 |
| 20260505040323 | 64 | 212 | 0.9 | 0.9 | 0.00 | 0.00 | 0.00 | 60 | 964.9 |
| 20260505035820 | 64 | 222 | 0.9 | 0.9 | 0.00 | 0.00 | 0.00 | 59 | 964.9 |
| 20260505035317 | 64 | 205 | 0.9 | 0.9 | 0.00 | 0.00 | 0.00 | 59 | 964.9 |
| 20260505034814 | 64 | 222 | 0.9 | 1.7 | 0.00 | 0.00 | 0.00 | 58 | 964.9 |
| 20260505034312 | 64 | 237 | 0.9 | 1.7 | 0.00 | 0.00 | 0.00 | 59 | 965.0 |
| 20260505033810 | 64 | 213 | 0.9 | 1.7 | 0.00 | 0.00 | 0.00 | 59 | 965.0 |
| 20260505033308 | 65 | 229 | 0.9 | 1.7 | 0.00 | 0.00 | 0.00 | 58 | 965.1 |
| 20260505032807 | 65 | 228 | 0.9 | 1.7 | 0.00 | 0.00 | 0.00 | 58 | 965.1 |
| 20260505032305 | 65 | 228 | 0.9 | 1.7 | 0.00 | 0.00 | 0.00 | 57 | 965.1 |
| 20260505031802 | 66 | 222 | 0.9 | 0.9 | 0.00 | 0.00 | 0.00 | 56 | 965.1 |
| 20260505031300 | 66 | 226 | 1.7 | 1.7 | 0.00 | 0.00 | 0.00 | 56 | 965.0 |
| 20260505030758 | 66 | 224 | 0.9 | 1.7 | 0.00 | 0.00 | 0.00 | 55 | 965.0 |
| 20260505030256 | 66 | 224 | 1.7 | 2.6 | 0.00 | 0.00 | 0.00 | 55 | 965.0 |
| 20260505025754 | 66 | 242 | 1.7 | 2.6 | 0.00 | 0.00 | 0.00 | 55 | 965.0 |
| 20260505025252 | 67 | 249 | 1.7 | 2.6 | 0.00 | 0.00 | 0.00 | 55 | 965.1 |
| 20260505024750 | 67 | 225 | 1.7 | 2.6 | 0.00 | 0.00 | 0.00 | 54 | 965.1 |
| 20260505024248 | 67 | 238 | 1.7 | 2.6 | 0.00 | 0.00 | 0.00 | 54 | 965.1 |
| 20260505023746 | 67 | 225 | 1.7 | 2.6 | 0.00 | 0.00 | 0.00 | 54 | 965.0 |
| 20260505023244 | 66 | 242 | 1.7 | 1.7 | 0.00 | 0.00 | 0.00 | 55 | 965.1 |
| 20260505022742 | 66 | 230 | 0.9 | 1.7 | 0.00 | 0.00 | 0.00 | 55 | 965.1 |
| 20260505022240 | 66 | 254 | 0.9 | 1.7 | 0.00 | 0.00 | 0.00 | 56 | 965.1 |
| 20260505021738 | 66 | 237 | 0.9 | 1.7 | 0.00 | 0.00 | 0.00 | 56 | 965.1 |
| 20260505021236 | 66 | 241 | 0.9 | 1.7 | 0.00 | 0.00 | 0.00 | 56 | 965.0 |
| 20260505020734 | 66 | 232 | 1.7 | 1.7 | 0.00 | 0.00 | 0.00 | 56 | 965.0 |
| 20260505020232 | 66 | 233 | 0.9 | 0.9 | 0.00 | 0.00 | 0.00 | 56 | 965.0 |
| 20260505015730 | 66 | 232 | 0.9 | 0.9 | 0.00 | 0.00 | 0.00 | 56 | 965.0 |
| 20260505015228 | 66 | 237 | 0.9 | 0.9 | 0.00 | 0.00 | 0.00 | 56 | 965.0 |
| 20260505014726 | 66 | 229 | 0.9 | 0.9 | 0.00 | 0.00 | 0.00 | 55 | 964.9 |
| 20260505014224 | 66 | 230 | 0.9 | 0.9 | 0.00 | 0.00 | 0.00 | 55 | 964.9 |
| 20260505013722 | 67 | 243 | 0.9 | 0.9 | 0.00 | 0.00 | 0.00 | 55 | 964.9 |
| 20260505013219 | 67 | 234 | 0.9 | 0.9 | 0.00 | 0.00 | 0.00 | 54 | 964.8 |
| 20260505012215 | 67 | 233 | 0.9 | 0.9 | 0.00 | 0.00 | 0.00 | 55 | 964.8 |
| 20260505011713 | 67 | 234 | 0.9 | 0.9 | 0.00 | 0.00 | 0.00 | 55 | 964.7 |
| 20260505011211 | 67 | 230 | 0.9 | 0.9 | 0.00 | 0.00 | 0.00 | 55 | 964.7 |
| 20260505010709 | 67 | 225 | 0.9 | 0.9 | 0.00 | 0.00 | 0.00 | 55 | 964.7 |
| 20260505010207 | 67 | 234 | 0.9 | 0.9 | 0.00 | 0.00 | 0.00 | 55 | 964.7 |
| 20260505005705 | 67 | 227 | 0.9 | 0.9 | 0.00 | 0.00 | 0.00 | 54 | 964.7 |
| 20260505005203 | 67 | 230 | 0.9 | 0.9 | 0.00 | 0.00 | 0.00 | 54 | 964.6 |
| 20260505004701 | 67 | 237 | 0.9 | 0.9 | 0.00 | 0.00 | 0.00 | 54 | 964.5 |
| 20260505004159 | 67 | 236 | 0.9 | 0.9 | 0.00 | 0.00 | 0.00 | 55 | 964.5 |
| 20260505003657 | 67 | 237 | 0.0 | 0.0 | 0.00 | 0.00 | 0.00 | 56 | 964.5 |
| 20260505003155 | 68 | 231 | 0.0 | 0.0 | 0.00 | 0.00 | 0.00 | 56 | 964.5 |
| 20260505002653 | 68 | 236 | 0.0 | 0.0 | 0.00 | 0.00 | 0.00 | 54 | 964.5 |
| 20260505002151 | 69 | 240 | 0.9 | 0.9 | 0.00 | 0.00 | 0.00 | 52 | 964.5 |
| 20260505001649 | 69 | 223 | 0.9 | 0.9 | 0.00 | 0.00 | 0.00 | 52 | 964.5 |
| 20260505001147 | 69 | 236 | 0.9 | 0.9 | 0.00 | 0.00 | 0.00 | 51 | 964.5 |
| 20260505000645 | 70 | 243 | 0.9 | 1.7 | 0.00 | 0.00 | 0.00 | 50 | 964.4 |
| 20260505000143 | 70 | 235 | 0.9 | 0.9 | 0.00 | 0.00 | 0.00 | 50 | 964.4 |
| 20260504235641 | 70 | 228 | 0.9 | 1.7 | 0.00 | 0.00 | 0.00 | 50 | 964.4 |
| 20260504235139 | 70 | 239 | 0.9 | 0.9 | 0.00 | 0.00 | 0.00 | 49 | 964.3 |
| 20260504234636 | 70 | 242 | 0.9 | 0.9 | 0.00 | 0.00 | 0.00 | 50 | 964.3 |
| 20260504234134 | 70 | 233 | 0.0 | 0.9 | 0.00 | 0.00 | 0.00 | 49 | 964.3 |
| 20260504233632 | 71 | 216 | 0.9 | 0.9 | 0.00 | 0.00 | 0.00 | 49 | 964.3 |
| 20260504233130 | 71 | 230 | 0.9 | 0.9 | 0.00 | 0.00 | 0.00 | 49 | 964.3 |
| 20260504232627 | 71 | 232 | 0.9 | 0.9 | 0.00 | 0.00 | 0.00 | 49 | 964.4 |
| 20260504232125 | 71 | 237 | 0.9 | 0.9 | 0.00 | 0.00 | 0.00 | 48 | 964.4 |
| 20260504231623 | 72 | 238 | 1.7 | 1.7 | 0.00 | 0.00 | 0.00 | 47 | 964.3 |
| 20260504231121 | 72 | 214 | 0.9 | 1.7 | 0.00 | 0.00 | 0.00 | 47 | 964.3 |
| 20260504230619 | 73 | 248 | 0.9 | 1.7 | 0.00 | 0.00 | 0.00 | 47 | 964.3 |
| 20260504230117 | 73 | 246 | 1.7 | 1.7 | 0.00 | 0.00 | 0.00 | 46 | 964.4 |
| 20260504225615 | 73 | 237 | 1.7 | 1.7 | 0.00 | 0.00 | 0.00 | 45 | 964.3 |
| 20260504225113 | 73 | 222 | 0.9 | 0.9 | 0.00 | 0.00 | 0.00 | 45 | 964.3 |
| 20260504224611 | 73 | 243 | 0.9 | 1.7 | 0.00 | 0.00 | 0.00 | 44 | 964.4 |
| 20260504224109 | 73 | 248 | 0.9 | 0.9 | 0.00 | 0.00 | 0.00 | 46 | 964.5 |
| 20260504223607 | 73 | 243 | 0.9 | 1.7 | 0.00 | 0.00 | 0.00 | 45 | 964.5 |
| 20260504223104 | 73 | 236 | 2.6 | 3.5 | 0.00 | 0.00 | 0.00 | 44 | 964.4 |
| 20260504222602 | 74 | 225 | 1.7 | 1.7 | 0.00 | 0.00 | 0.00 | 46 | 964.5 |
| 20260504222100 | 74 | 242 | 0.9 | 1.7 | 0.00 | 0.00 | 0.00 | 45 | 964.6 |
| 20260504221558 | 74 | 248 | 0.9 | 0.9 | 0.00 | 0.00 | 0.00 | 45 | 964.5 |
| 20260504221056 | 74 | 230 | 1.7 | 1.7 | 0.00 | 0.00 | 0.00 | 45 | 964.6 |
| 20260504220554 | 73 | 211 | 0.9 | 1.7 | 0.00 | 0.00 | 0.00 | 46 | 964.6 |
| 20260504220053 | 73 | 245 | 0.9 | 1.7 | 0.00 | 0.00 | 0.00 | 46 | 964.5 |
| 20260504215550 | 73 | 276 | 1.7 | 1.7 | 0.00 | 0.00 | 0.00 | 45 | 964.5 |
| 20260504215048 | 73 | 255 | 1.7 | 2.6 | 0.00 | 0.00 | 0.00 | 46 | 964.5 |
| 20260504214546 | 74 | 225 | 1.7 | 2.6 | 0.00 | 0.00 | 0.00 | 46 | 964.5 |
| 20260504214044 | 73 | 212 | 0.9 | 0.9 | 0.00 | 0.00 | 0.00 | 49 | 964.6 |
| 20260504213542 | 73 | 223 | 1.7 | 2.6 | 0.00 | 0.00 | 0.00 | 47 | 964.5 |
| 20260504213040 | 73 | 234 | 1.7 | 1.7 | 0.00 | 0.00 | 0.00 | 48 | 964.6 |
| 20260504212538 | 73 | 219 | 0.9 | 1.7 | 0.00 | 0.00 | 0.00 | 50 | 964.5 |
| 20260504212036 | 73 | 224 | 1.7 | 2.6 | 0.00 | 0.00 | 0.00 | 47 | 964.6 |
| 20260504211534 | 73 | 227 | 1.7 | 1.7 | 0.00 | 0.00 | 0.00 | 47 | 964.7 |
| 20260504211032 | 73 | 179 | 1.7 | 2.6 | 0.00 | 0.00 | 0.00 | 47 | 964.7 |
| 20260504210530 | 73 | 198 | 0.9 | 1.7 | 0.00 | 0.00 | 0.00 | 48 | 964.7 |
| 20260504210028 | 74 | 229 | 0.9 | 1.7 | 0.00 | 0.00 | 0.00 | 48 | 964.8 |
| 20260504205526 | 73 | 203 | 0.9 | 0.9 | 0.00 | 0.00 | 0.00 | 48 | 964.8 |
| 20260504205024 | 73 | 196 | 0.9 | 1.7 | 0.00 | 0.00 | 0.00 | 50 | 965.0 |
| 20260504204522 | 74 | 211 | 0.9 | 1.7 | 0.00 | 0.00 | 0.00 | 50 | 964.9 |
| 20260504204019 | 73 | 244 | 0.9 | 1.7 | 0.00 | 0.00 | 0.00 | 49 | 965.0 |
| 20260504203517 | 73 | 198 | 0.9 | 1.7 | 0.00 | 0.00 | 0.00 | 49 | 965.0 |
| 20260504203015 | 73 | 168 | 1.7 | 1.7 | 0.00 | 0.00 | 0.00 | 50 | 965.0 |
| 20260504202513 | 73 | 197 | 0.9 | 0.9 | 0.00 | 0.00 | 0.00 | 50 | 965.2 |
| 20260504202011 | 73 | 196 | 1.7 | 1.7 | 0.00 | 0.00 | 0.00 | 48 | 965.2 |
| 20260504201509 | 73 | 200 | 0.9 | 2.6 | 0.00 | 0.00 | 0.00 | 49 | 965.3 |
| 20260504201007 | 73 | 199 | 0.9 | 0.9 | 0.00 | 0.00 | 0.00 | 47 | 965.4 |
| 20260504200505 | 73 | 229 | 1.7 | 2.6 | 0.00 | 0.00 | 0.00 | 49 | 965.3 |
| 20260504200003 | 72 | 224 | 0.9 | 1.7 | 0.00 | 0.00 | 0.00 | 51 | 965.4 |
| 20260504195501 | 72 | 209 | 0.9 | 1.7 | 0.00 | 0.00 | 0.00 | 50 | 965.4 |
| 20260504194959 | 72 | 265 | 0.9 | 1.7 | 0.00 | 0.00 | 0.00 | 49 | 965.5 |
| 20260504194457 | 72 | 216 | 0.9 | 0.9 | 0.00 | 0.00 | 0.00 | 53 | 965.5 |
| 20260504193955 | 72 | 174 | 0.9 | 2.6 | 0.00 | 0.00 | 0.00 | 51 | 965.6 |
| 20260504193452 | 71 | 249 | 0.9 | 1.7 | 0.00 | 0.00 | 0.00 | 52 | 965.7 |
| 20260504192950 | 71 | 227 | 0.9 | 1.7 | 0.00 | 0.00 | 0.00 | 53 | 965.9 |
| 20260504192448 | 71 | 170 | 0.9 | 1.7 | 0.00 | 0.00 | 0.00 | 53 | 966.0 |
| 20260504191946 | 71 | 194 | 0.9 | 1.7 | 0.00 | 0.00 | 0.00 | 53 | 966.1 |
| 20260504191443 | 71 | 214 | 0.9 | 1.7 | 0.00 | 0.00 | 0.00 | 53 | 966.2 |
| 20260504190941 | 70 | 186 | 1.7 | 2.6 | 0.00 | 0.00 | 0.00 | 54 | 966.3 |
| 20260504190439 | 70 | 184 | 1.7 | 2.6 | 0.00 | 0.00 | 0.00 | 54 | 966.4 |
| 20260504185937 | 70 | 240 | 0.9 | 0.9 | 0.00 | 0.00 | 0.00 | 54 | 966.4 |
| 20260504185435 | 70 | 185 | 1.7 | 1.7 | 0.00 | 0.00 | 0.00 | 55 | 966.4 |
| 20260504184933 | 70 | 186 | 1.7 | 2.6 | 0.00 | 0.00 | 0.00 | 55 | 966.5 |
| 20260504184430 | 70 | 131 | 0.9 | 0.9 | 0.00 | 0.00 | 0.00 | 53 | 966.5 |
| 20260504183928 | 70 | 234 | 0.9 | 1.7 | 0.00 | 0.00 | 0.00 | 52 | 966.7 |
| 20260504183426 | 69 | 183 | 0.9 | 1.7 | 0.00 | 0.00 | 0.00 | 55 | 966.8 |
| 20260504182924 | 69 | 289 | 0.9 | 1.7 | 0.00 | 0.00 | 0.00 | 52 | 966.8 |
| 20260504182422 | 69 | 202 | 0.9 | 0.9 | 0.00 | 0.00 | 0.00 | 52 | 966.9 |
| 20260504181920 | 69 | 239 | 1.7 | 2.6 | 0.00 | 0.00 | 0.00 | 51 | 966.9 |
| 20260504181418 | 68 | 179 | 1.7 | 2.6 | 0.00 | 0.00 | 0.00 | 52 | 966.9 |
| 20260504180916 | 69 | 176 | 0.9 | 2.6 | 0.00 | 0.00 | 0.00 | 53 | 966.9 |
| 20260504180414 | 68 | 169 | 1.7 | 2.6 | 0.00 | 0.00 | 0.00 | 53 | 967.0 |
| 20260504175912 | 69 | 185 | 0.0 | 0.9 | 0.00 | 0.00 | 0.00 | 53 | 967.1 |
| 20260504175410 | 69 | 190 | 0.9 | 1.7 | 0.00 | 0.00 | 0.00 | 53 | 967.1 |
| 20260504174908 | 68 | 178 | 0.9 | 1.7 | 0.00 | 0.00 | 0.00 | 55 | 967.1 |
| 20260504174406 | 68 | 215 | 0.9 | 1.7 | 0.00 | 0.00 | 0.00 | 53 | 967.2 |
| 20260504173904 | 68 | 219 | 0.9 | 1.7 | 0.00 | 0.00 | 0.00 | 54 | 967.3 |
| 20260504173402 | 68 | 209 | 0.9 | 1.7 | 0.00 | 0.00 | 0.00 | 56 | 967.3 |
| 20260504172900 | 67 | 206 | 0.9 | 1.7 | 0.00 | 0.00 | 0.00 | 52 | 967.5 |
| 20260504172358 | 67 | 239 | 1.7 | 2.6 | 0.00 | 0.00 | 0.00 | 53 | 967.5 |
| 20260504171856 | 67 | 209 | 0.9 | 1.7 | 0.00 | 0.00 | 0.00 | 53 | 967.5 |
| 20260504171354 | 67 | 224 | 0.9 | 1.7 | 0.00 | 0.00 | 0.00 | 54 | 967.7 |
| 20260504170851 | 66 | 249 | 0.9 | 1.7 | 0.00 | 0.00 | 0.00 | 55 | 967.8 |
| 20260504170349 | 66 | 246 | 0.9 | 0.9 | 0.00 | 0.00 | 0.00 | 53 | 967.8 |
| 20260504160325 | 62 | 204 | 0.9 | 1.7 | 0.00 | 0.00 | 0.00 | 58 | 968.5 |
| 20260504150801 | 60 | 46 | 1.7 | 2.6 | 0.00 | 0.00 | 0.00 | 58 | 969.1 |
| 20260504150259 | 59 | 46 | 1.7 | 2.6 | 0.00 | 0.00 | 0.00 | 59 | 969.1 |
| 20260504141239 | 55 | 133 | 0.9 | 1.7 | 0.00 | 0.00 | 0.00 | 70 | 969.5 |
| 20260504140737 | 55 | 178 | 0.9 | 2.6 | 0.00 | 0.00 | 0.00 | 74 | 969.6 |
| 20260504140235 | 55 | 196 | 0.9 | 2.6 | 0.00 | 0.00 | 0.00 | 74 | 969.6 |
| 20260504130712 | 52 | 172 | 0.9 | 0.9 | 0.00 | 0.00 | 0.00 | 77 | 969.4 |
| 20260504130210 | 53 | 175 | 0.0 | 0.9 | 0.00 | 0.00 | 0.00 | 78 | 969.3 |
| 20260504120146 | 52 | 225 | 0.0 | 0.0 | 0.00 | 0.00 | 0.00 | 74 | 968.5 |
| 20260504110624 | 43 | 226 | 0.0 | 0.0 | 0.00 | 0.00 | 0.00 | 87 | 968.4 |
| 20260504110122 | 43 | 227 | 0.0 | 0.0 | 0.00 | 0.00 | 0.00 | 87 | 968.3 |
| 20260504100601 | 45 | 227 | 0.0 | 0.0 | 0.00 | 0.00 | 0.00 | 81 | 968.5 |
| 20260504081517 | 45 | 226 | 0.0 | 0.0 | 0.00 | 0.00 | 0.00 | 79 | 968.6 |
| 20260504081016 | 46 | 226 | 0.0 | 0.0 | 0.00 | 0.00 | 0.00 | 78 | 968.5 |
| 20260504080514 | 46 | 226 | 0.0 | 0.0 | 0.00 | 0.00 | 0.00 | 78 | 968.5 |